Home   Weather   Mysen   Past weeks

Flag for Norway Past Weather in Mysen, Norway — Yesterday and Last 2 Weeks

Now
50 °F

Clear.


Feels Like: 45 °F
Forecast: 42 / 56 °F
Wind: 15 mph from Southwest

Location: Rygge

Current Time: Oct 1, 2016 at 1:53:36 AM

Latest Report: Oct 1, 2016 at 12:50 AM


Visibility: 10 mi

Pressure: 29.53 "Hg

Humidity: 67%

Dew Point: 39 °F

Location of MysenLocation

Past Weather in Mysen — Graph

°F

Mysen Temperature Yesterday

Maximum temperature yesterday: 59 °F (at 2:50 PM)
Minimum temperature yesterday: 50 °F (at 6:20 AM)
Average temperature yesterday: 54 °F

High & Low Weather Summary for the Past Weeks

 TemperatureHumidityPressure
High70 °F (Sep 20, 3:50 PM)100% (Sep 16, 12:20 AM)30.27 "Hg (Sep 16, 12:20 AM)
Low39 °F (Sep 24, 5:50 AM)45% (Sep 30, 2:50 PM)29.12 "Hg (Sep 29, 6:20 PM)
Average57 °F82%30.00 "Hg
* Reported Sep 16 12:20 AM — Oct 1 12:20 AM, Mysen, Weather by CustomWeather, © 2016

Note: Actual official high and low records may vary slightly from our data, if they occured in-between our weather recording intervals... More about our weather records

Advertising

Mysen Weather History for the Previous 24 Hours

Scroll right to see more
 ConditionsComfort  
Time TempWeatherWind HumidityBarometerVisibility
12:20 AM
Sat, Oct 1
50 °FClear.9 mph67%29.56 "Hg10 mi
11:50 PM
Fri, Sep 30
50 °FClear.10 mph67%29.53 "Hg10 mi
11:20 PM50 °FPassing clouds.13 mph67%29.53 "HgN/A
10:50 PM52 °FClear.14 mph62%29.50 "Hg10 mi
10:20 PM52 °FClear.15 mph62%29.50 "Hg10 mi
9:50 PM52 °FClear.13 mph62%29.50 "Hg10 mi
9:20 PM52 °FClear.12 mph62%29.47 "Hg10 mi
8:50 PM54 °FClear.12 mph58%29.47 "Hg10 mi
8:20 PM54 °FClear.13 mph58%29.47 "Hg10 mi
7:20 PM55 °FClear.13 mph51%29.47 "Hg10 mi
6:50 PM55 °FSunny.13 mph51%29.47 "Hg10 mi
6:20 PM55 °FSunny.13 mph51%29.47 "Hg10 mi
5:50 PM57 °FSunny.13 mph48%29.47 "Hg10 mi
5:20 PM57 °FPassing clouds.15 mph48%29.47 "HgN/A
4:50 PM57 °FSunny.15 mph48%29.47 "Hg10 mi
4:20 PM57 °FPassing clouds.12 mph48%29.47 "HgN/A
3:50 PM57 °FSunny.16 mph48%29.45 "Hg10 mi
3:20 PM57 °FPassing clouds.15 mph48%29.47 "HgN/A
2:50 PM59 °FSunny.14 mph45%29.47 "Hg10 mi
2:20 PM55 °FPassing clouds.15 mph51%29.47 "HgN/A
1:50 PM57 °FPassing clouds.15 mph51%29.47 "HgN/A
1:20 PM57 °FPassing clouds.12 mph51%29.47 "HgN/A
12:50 PM55 °FSunny.15 mph55%29.45 "Hg10 mi
12:20 PM55 °FPassing clouds.12 mph55%29.47 "HgN/A
11:50 AM54 °FPassing clouds.13 mph58%29.45 "HgN/A
11:20 AM54 °FSunny.13 mph58%29.45 "Hg10 mi
10:50 AM54 °FPassing clouds.13 mph58%29.45 "HgN/A
10:20 AM52 °FPassing clouds.12 mph62%29.45 "HgN/A
9:50 AM52 °FPassing clouds.10 mph62%29.45 "HgN/A
9:20 AM52 °FPassing clouds.10 mph58%29.42 "HgN/A
8:50 AM52 °FSunny.12 mph58%29.42 "Hg10 mi
8:20 AM50 °FSunny.12 mph62%29.42 "Hg10 mi
7:50 AM50 °FSunny.14 mph62%29.39 "Hg10 mi
7:20 AM50 °FSunny.13 mph62%29.39 "Hg10 mi
6:50 AM50 °FClear.15 mph62%29.36 "Hg10 mi
6:20 AM50 °FPassing clouds.12 mph62%29.36 "HgN/A
5:50 AM52 °FCool.14 mph58%29.33 "HgN/A
5:20 AM52 °FCool.15 mph54%29.33 "HgN/A
4:50 AM52 °FCool.15 mph58%29.33 "HgN/A
4:20 AM52 °FCool.16 mph58%29.30 "HgN/A
3:50 AM52 °FCool.13 mph58%29.30 "HgN/A
3:20 AM54 °FCool.16 mph54%29.30 "HgN/A
2:50 AM54 °FPassing clouds.15 mph54%29.27 "HgN/A
2:20 AM54 °FPassing clouds.14 mph54%29.27 "HgN/A
1:50 AM54 °FCool.20 mph58%29.24 "HgN/A
1:20 AM54 °FPassing clouds.15 mph58%29.24 "HgN/A
Weather by CustomWeather, © 2016

See weather overviewHow to use our weather pages